MET993 - Jakarta to Hong Kong

Airbus A330-243
787MT
4 hrs 15 mins
1762 nm
Scheduled - SU | W | F | SA

Bid/PiRep Status

Bid was submitted on January 1st, 2017 18:00 UTC.
PiRep # 74567: Approved by Sean Doyle on January 2nd, 2017 15:14 UTC

Departure

Departing from
Jakarta (CGK)
Departure gate
Ramp
Scheduled Departure
GMT 1215
Local 1915
METAR WIII 250130Z 23011KT 8000 FEW020 30/24 Q1009 NOSIG
TAF TAF WIII 242300Z 2500/2606 23005KT 5000 HZ FEW021 BECMG 2501/2503 25015KT 8000 NSW BECMG 2511/2513 22005KT 5000 BECMG 2602/2604 25012KT 8000
  • No charts available

Arrival

Arriving at
Hong Kong (HKG)
Arrival gate
Terminal 1
Scheduled Arrival
GMT 1630
Local 0030
METAR VHHH 250130Z 01010KT 9000 FEW030 17/10 Q1023 NOSIG
TAF TAF VHHH 242300Z 2500/2606 03010KT 9000 FEW025 SCT040 TX18/2506Z TX19/2606Z TN15/2523Z TEMPO 2503/2509 4000 RA

Route Map

Planning Resources

DKI P648 OSUKA M772 DULOP M771 DUMOL
AMBO1B AMBOY P648 OSUKA M772 DULOP Q1 CARSO V551 BETTY BETY2B
JAKARTA2 DEDNY B592 OSUKA M772 DUMOL DUMOL1A
WIII DKI ATOSO OSUKA ANIPU VSB TAMIB DARMU ASISU VAVUM DABGI DUM OL CH VHHH
AMBO1B AMBOY P648 OSUKA M772 DULOP Q1 CARSO
Route:
OFP Layout:
Units:
Detailed Navlog:
ETOPS Planning:
Plan Stepclimbs:
Runway Analysis:
Include NOTAMS:
FIR NOTAMS:
Flight Maps:

Return Flights

MET992
Airbus A330-243
0700 GMT

Popularity

Hub Current Bids PiReps this month Total PiReps
KLAX 0 0 4
KBOS 0 0 0
KDFW 0 0 0